Fort Campbell, KY

3:31 AM CST on November 18, 2017 (GMT -0600)
Campbell Army Air Field

Weather History for KHOP - March, 2013

Change the Weather History Date:

Friday, March 29, 2013

  Actual Average Record
Temperature  
Mean Temperature 48 °F -  
Max Temperature 55 °F 62 °F 87 °F (1998)
Min Temperature 42 °F 41 °F 28 °F (2015)
Degree Days  
Heating Degree Days 17    
Moisture  
Dew Point 46 °F    
Average Humidity 95    
Maximum Humidity 100    
Minimum Humidity 69    
Precipitation  
Precipitation 0.60 in - - ()
Sea Level Pressure  
Sea Level Pressure 30.26 in    
Wind  
Wind Speed 5 mph (SE)    
Max Wind Speed 12 mph    
Max Gust Speed -    
Visibility 9 miles    
Events Rain    
Averages and records for this station are not official NWS values.
T = Trace of Precipitation, MM = Missing Value Source: NWS Daily Summary

Daily Weather History Graph

Daily Weather History Graph

Search for Another Location

Airport or City:

Trip Planner

Search our weather history database for the weather conditions in past years. The results will help you decide how hot, cold, wet, or windy it might be!

Date:

Astronomy

Mar. 29, 2013 Rise Set
Actual Time 6:39 AM CDT 7:09 PM CDT
Civil Twilight 6:13 AM CDT 7:35 PM CDT
Nautical Twilight 5:43 AM CDT 8:06 PM CDT
Astronomical Twilight 5:12 AM CDT 8:37 PM CDT
Moon 10:04 PM CDT (3/29) 7:53 AM CDT (3/29)
Length of Visible Light 13h 21m
Length of Day
12h 29m
Waning Gibbous, 93% of the Moon is Illuminated
Mar 29
Waning Gibbous
Apr 2
Last Quarter
Apr 10
New
Apr 18
First Quarter
Apr 25
Full

Hourly Weather History & Observations

Time (CDT) Temp. Windchill Dew Point Humidity Pressure Visibility Wind Dir Wind Speed Gust Speed Precip Events Conditions
12:55 AM 47.5 °F - 37.6 °F 69% 30.29 in 10.0 mi ESE 4.6 mph - N/A   Overcast
1:55 AM 46.4 °F - 37.9 °F 72% 30.28 in 10.0 mi Calm Calm - N/A   Overcast
2:55 AM 46.4 °F - 37.6 °F 71% 30.27 in 10.0 mi Calm Calm - N/A   Overcast
3:48 AM 44.6 °F 41.4 °F 41.0 °F 87% 30.28 in 10.0 mi NNE 5.8 mph - N/A   Light Drizzle
3:55 AM 45.3 °F 44.0 °F 41.4 °F 86% 30.28 in 10.0 mi NNE 3.5 mph - 0.00 in   Light Drizzle
4:42 AM 46.4 °F 42.4 °F 41.0 °F 81% 30.27 in 10.0 mi East 8.1 mph - N/A   Mostly Cloudy
4:55 AM 46.2 °F 45.0 °F 41.0 °F 82% 30.27 in 10.0 mi ESE 3.5 mph - 0.00 in   Overcast
5:49 AM 46.4 °F 44.3 °F 41.0 °F 81% 30.28 in 10.0 mi ENE 4.6 mph - N/A   Light Drizzle
5:55 AM 45.3 °F 44.0 °F 42.6 °F 90% 30.29 in 10.0 mi NNE 3.5 mph - 0.00 in   Drizzle
6:08 AM 44.6 °F 40.7 °F 44.6 °F 100% 30.28 in 5.0 mi NE 6.9 mph - N/A Rain Heavy Rain
6:55 AM 44.2 °F 40.3 °F 44.1 °F 99% 30.29 in 10.0 mi East 6.9 mph - 0.06 in   Light Drizzle
6:58 AM 44.6 °F 41.4 °F 44.6 °F 100% 30.29 in 10.0 mi ENE 5.8 mph - N/A   Mostly Cloudy
7:13 AM 44.6 °F 40.2 °F 44.6 °F 100% 30.29 in 10.0 mi East 8.1 mph - N/A   Light Drizzle
7:23 AM 44.6 °F 40.7 °F 44.6 °F 100% 30.30 in 10.0 mi ESE 6.9 mph - N/A   Mostly Cloudy
7:26 AM 44.6 °F 41.4 °F 44.6 °F 100% 30.31 in 10.0 mi East 5.8 mph - N/A   Light Drizzle
7:55 AM 43.5 °F 40.1 °F 43.3 °F 99% 30.30 in 5.0 mi NE 5.8 mph - 0.04 in Rain Light Rain
8:01 AM 42.8 °F 38.0 °F 42.8 °F 100% 30.30 in 6.0 mi East 8.1 mph - N/A Rain Light Rain
8:21 AM 42.8 °F 41.1 °F 42.8 °F 100% 30.32 in 5.0 mi South 3.5 mph - N/A Rain Light Rain
8:36 AM 42.8 °F - 42.8 °F 100% 30.32 in 2.0 mi Calm Calm - N/A Rain Rain
8:37 AM 42.8 °F - 42.8 °F 100% 30.32 in 1.8 mi Calm Calm - N/A Rain Rain
8:46 AM 42.8 °F - 42.8 °F 100% 30.32 in 2.0 mi Calm Calm - N/A Rain Light Rain
8:55 AM 43.3 °F - 43.3 °F 100% 30.32 in 2.5 mi Calm Calm - 0.16 in Rain Rain
9:07 AM 44.6 °F 40.2 °F 44.6 °F 100% 30.32 in 3.0 mi SSE 8.1 mph - N/A Rain Rain
9:20 AM 44.6 °F 39.7 °F 44.6 °F 100% 30.31 in 4.0 mi SSE 9.2 mph - N/A Rain Light Rain
9:55 AM 44.6 °F 38.8 °F 44.6 °F 100% 30.30 in 6.0 mi SE 11.5 mph - 0.17 in Rain Light Rain
10:55 AM 46.0 °F 40.6 °F 46.0 °F 100% 30.28 in 9.0 mi ESE 11.5 mph - 0.12 in   Light Drizzle
11:08 AM 46.4 °F 41.9 °F 46.4 °F 100% 30.28 in 10.0 mi SE 9.2 mph - N/A   Overcast
11:13 AM 46.4 °F 41.9 °F 46.4 °F 100% 30.29 in 10.0 mi SE 9.2 mph - N/A   Light Drizzle
11:55 AM 47.5 °F - 47.5 °F 100% 30.27 in 10.0 mi SSE 9.2 mph - 0.02 in   Light Drizzle
12:55 PM 48.4 °F - 48.4 °F 100% 30.26 in 10.0 mi ESE 6.9 mph - 0.02 in   Light Drizzle
1:06 PM 48.2 °F - 48.2 °F 100% 30.25 in 10.0 mi SE 8.1 mph - N/A   Overcast
1:55 PM 50.4 °F - 50.4 °F 100% 30.24 in 10.0 mi SE 8.1 mph - 0.01 in   Mostly Cloudy
2:55 PM 52.0 °F - 50.9 °F 96% 30.22 in 10.0 mi SE 5.8 mph - N/A   Mostly Cloudy
3:55 PM 52.5 °F - 49.6 °F 90% 30.21 in 10.0 mi SW 3.5 mph - N/A   Mostly Cloudy
4:55 PM 54.9 °F - 48.6 °F 79% 30.20 in 10.0 mi SW 8.1 mph - N/A   Mostly Cloudy
5:32 PM 53.6 °F - 48.2 °F 82% 30.20 in 10.0 mi South 6.9 mph - N/A   Overcast
5:55 PM 52.7 °F - 48.4 °F 85% 30.21 in 10.0 mi SSW 5.8 mph - N/A   Overcast
6:55 PM 51.6 °F - 49.5 °F 92% 30.21 in 10.0 mi South 4.6 mph - N/A   Overcast
7:48 PM 50.0 °F - 50.0 °F 100% 30.22 in 10.0 mi SSE 4.6 mph - N/A   Overcast
7:50 PM 50.0 °F - 50.0 °F 100% 30.21 in 10.0 mi SSE 4.6 mph - N/A   Overcast
7:55 PM 50.2 °F - 50.2 °F 100% 30.22 in 10.0 mi SSE 4.6 mph - N/A   Overcast
8:06 PM 50.0 °F - 50.0 °F 100% 30.22 in 10.0 mi South 3.5 mph - N/A   Overcast
8:37 PM 50.0 °F - 50.0 °F 100% 30.22 in 10.0 mi South 3.5 mph - N/A   Overcast
8:55 PM 49.8 °F - 49.8 °F 100% 30.23 in 10.0 mi South 3.5 mph - N/A   Overcast
8:59 PM 50.0 °F - 50.0 °F 100% 30.22 in 10.0 mi SSE 3.5 mph - N/A   Overcast
9:30 PM 50.0 °F - 50.0 °F 100% 30.23 in 10.0 mi Calm Calm - N/A   Overcast
9:43 PM 50.0 °F - 50.0 °F 100% 30.23 in 10.0 mi Calm Calm - N/A   Overcast
9:55 PM 49.6 °F - 49.6 °F 100% 30.23 in 10.0 mi Calm Calm - N/A   Overcast
10:05 PM 50.0 °F - 50.0 °F 100% 30.24 in 10.0 mi Calm Calm - N/A   Overcast
10:08 PM 50.0 °F - 50.0 °F 100% 30.24 in 10.0 mi Calm Calm - N/A   Overcast
10:51 PM 48.2 °F - 48.2 °F 100% 30.23 in 10.0 mi Calm Calm - N/A   Mostly Cloudy
10:55 PM 48.6 °F - 48.6 °F 100% 30.23 in 10.0 mi ENE 3.5 mph - N/A   Mostly Cloudy
11:55 PM 46.6 °F - 46.6 °F 100% 30.22 in 9.0 mi Calm Calm - N/A   Clear